{"data":{"norad_id":45154,"intl_designator":"2020-008Z","name":"ONEWEB-0049","alt_names":[],"object_type":"PAYLOAD","status":"ACTIVE","operator":null,"country":"UK","launch_date":"2020-02-06","launch_site_code":"TYMSC","launch_vehicle":null,"mission":null,"orbit_class":"UNKNOWN","rcs_meters":null,"size_class":null,"mass_kg":null,"dimensions":null,"purposes":["comms"],"wikipedia_slug":null,"has_3d_model":false,"image_url":null,"decayed_at":null,"tle_current":{"epoch":"2026-09-20T03:15:47.426112Z","epoch_age_seconds":45843,"freshness":"FRESH","line1":"1 45154U 20008Z   26263.13596558 -.00000057  00000+0 -20044-3 0  9996","line2":"2 45154  87.8906  17.3718 0001837 113.9034 246.2286 13.10376704320463","mean_motion":13.10376704,"eccentricity":0.0001837,"inclination_deg":87.8906,"raan_deg":17.3718,"arg_perigee_deg":113.9034,"mean_anomaly_deg":246.2286,"bstar":-0.00020044,"rev_number":32046,"period_min":109.89206352679,"perigee_km":1220.306031244,"apogee_km":1223.0982121373,"semimajor_km":7599.8391216907,"source":"CELESTRAK","updated_at":"2026-09-20T09:00:44.549453Z"}}}